SENTINEL-5P (42969 NORAD) Tracking and Keplerian Element Data

This shows tracking and keplerian element data for the satellite.

Feedback or suggestion? Click here.




ElementValue
Catalog42969
NameSENTINEL-5P
Epoch Orbit5617
Epoch Day317.40232223
Epoch Year2018
RAAN255.0158
Inclination98.7124
Eccentricity0.0001006
Argument of Perigee82.0127
Mean Anonmoly278.1163
Mean Motion14.19548367
Decay Rate-1.1E-07
L11 42969U 17064A 18317.40232223 -.00000011 00000-0 15592-4 0 9995
L22 42969 98.7124 255.0158 0001006 82.0127 278.1163 14.19548367 56171

Live tracking and technical data element details for SENTINEL-5P (NORAD 42969). SENTINEL-5P can be tracked NOW for your location showing map with azimuth and elevation plus other details from your city location.

Track the satellite on the map from your city or location and see movement details for azimuth, elevation, latitude, longitude, range, height, and movement on the map or in text.







IsCatalogInMostPopularTable: catalog: 42969, numindb: 144
Update: records affected: 1



GetName: 42969 SENTINEL-5P

Hit Count: updated at: Wed, 14 Nov 2018 11:27:06 GMT